SR1NRS Weather Reports


Display with metric or nautical units.
time (UTC)temp
F
wind
direction
speed
MPH
gust
MPH
rain 1hr
in
rain 24hr
in
rain mn
in
humidity
%
barometer
mb
20260507044124 45 342 1.0 2.0 0.00 0.00 0.00 80 1010.8
20260507043624 45 35 1.0 2.0 0.00 0.00 0.00 80 1010.8
20260507043123 45 222 0.0 0.0 0.00 0.00 0.00 80 1010.5
20260507042624 45 220 1.0 1.0 0.00 0.00 0.00 80 1010.5
20260507042124 45 263 2.0 3.0 0.00 0.00 0.00 80 1010.2
20260507041623 45 68 3.0 5.0 0.00 0.00 0.00 80 1010.5
20260507041123 45 167 1.0 2.0 0.00 0.00 0.00 80 1010.5
20260507040626 45 175 1.0 1.0 0.00 0.00 0.00 80 1010.5
20260507040124 45 304 2.0 2.0 0.00 0.00 0.00 79 1010.2
20260507035624 45 115 2.0 5.0 0.00 0.00 0.00 79 1010.2
20260507035123 45 194 0.0 0.0 0.00 0.00 0.00 80 1010.2
20260507034623 45 48 6.0 7.0 0.00 0.00 0.00 80 1009.8
20260507034123 45 39 6.0 8.0 0.00 0.00 0.00 80 1010.2
20260507033623 45 321 2.0 2.0 0.00 0.00 0.00 81 1009.8
20260507033123 45 165 2.0 2.0 0.00 0.00 0.00 81 1009.8
20260507032634 45 9 2.0 5.0 0.00 0.00 0.00 81 1009.8
20260507032123 45 333 5.0 7.0 0.00 0.00 0.00 80 1009.8
20260507031623 45 230 1.0 1.0 0.00 0.00 0.00 80 1009.8
20260507031123 45 356 3.0 5.0 0.00 0.00 0.00 80 1009.8
20260507030625 45 331 2.0 2.0 0.00 0.00 0.00 80 1009.8
20260507030123 45 45 6.0 7.0 0.00 0.00 0.00 80 1009.8
20260507025623 45 53 2.0 5.0 0.00 0.00 0.00 80 1009.8
20260507025124 44 8 2.0 3.0 0.00 0.00 0.00 81 1009.8
20260507024626 44 10 4.0 6.0 0.00 0.00 0.00 81 1009.5
20260507024123 44 102 2.0 3.0 0.00 0.00 0.00 81 1009.8
20260507023626 44 182 1.0 1.0 0.00 0.00 0.00 81 1009.8
20260507023124 44 210 1.0 1.0 0.00 0.00 0.00 81 1009.8
20260507022623 44 223 0.0 1.0 0.00 0.00 0.00 81 1009.5
20260507021653 44 340 1.0 1.0 0.00 0.00 0.00 80 1009.5
20260507021123 44 193 1.0 2.0 0.00 0.00 0.00 81 1009.5
20260507020624 44 50 4.0 5.0 0.00 0.00 0.00 81 1009.5
20260507020123 44 107 5.0 6.0 0.00 0.00 0.00 81 1009.5
20260507015623 44 175 0.0 1.0 0.00 0.00 0.00 81 1009.1
20260507015125 44 185 3.0 6.0 0.00 0.00 0.00 81 1009.5
20260507014623 44 19 3.0 8.0 0.00 0.00 0.00 81 1009.1
20260507014123 44 52 3.0 6.0 0.00 0.00 0.00 81 1009.5
20260507013139 44 137 2.0 2.0 0.00 0.00 0.00 81 1009.1
20260507012624 44 86 4.0 6.0 0.00 0.00 0.00 81 1009.1
20260507012123 44 40 5.0 6.0 0.00 0.00 0.00 81 1009.1
20260507011624 44 7 5.0 7.0 0.00 0.00 0.00 81 1009.1
20260507011123 44 61 6.0 9.0 0.00 0.00 0.00 81 1009.5
20260507010623 44 50 5.0 7.0 0.00 0.00 0.00 82 1009.1
20260507010123 44 309 1.0 2.0 0.00 0.00 0.00 82 1009.1
20260507005623 44 69 5.0 6.0 0.00 0.00 0.00 82 1009.1
20260507005124 44 192 0.0 1.0 0.00 0.00 0.00 82 1008.8
20260507004624 44 159 2.0 3.0 0.00 0.00 0.00 82 1009.1
20260507004123 44 8 3.0 3.0 0.00 0.00 0.00 81 1008.8
20260507003625 44 9 2.0 3.0 0.00 0.00 0.00 81 1008.8
20260507003123 44 27 5.0 6.0 0.00 0.00 0.00 81 1008.8
20260507002624 45 134 2.0 3.0 0.00 0.00 0.00 81 1008.8
20260507002126 45 68 6.0 8.0 0.00 0.00 0.00 81 1009.1
20260507001623 45 346 3.0 3.0 0.00 0.00 0.00 81 1009.1
20260507001123 45 168 2.0 3.0 0.00 0.00 0.00 81 1009.1
20260507000623 45 53 4.0 6.0 0.00 0.00 0.00 81 1009.1
20260507000124 45 32 3.0 5.0 0.00 0.00 0.00 81 1009.1
20260506235624 45 37 3.0 5.0 0.00 0.00 0.00 81 1009.1
20260506235124 45 328 2.0 3.0 0.00 0.00 0.00 81 1008.8
20260506234625 45 36 4.0 5.0 0.00 0.00 0.00 81 1009.1
20260506234123 45 89 3.0 5.0 0.00 0.00 0.00 81 1008.8
20260506233623 45 349 3.0 3.0 0.00 0.00 0.00 81 1008.8
20260506233124 45 25 3.0 6.0 0.00 0.00 0.00 81 1008.8
20260506232624 45 30 4.0 6.0 0.00 0.00 0.00 81 1008.8
20260506232124 45 40 4.0 7.0 0.00 0.00 0.00 81 1008.8
20260506231624 44 54 5.0 7.0 0.00 0.00 0.00 81 1008.8
20260506231123 45 44 3.0 5.0 0.00 0.00 0.00 82 1008.8
20260506230623 44 34 2.0 2.0 0.00 0.00 0.00 81 1008.5
20260506230123 45 214 2.0 3.0 0.00 0.00 0.00 81 1008.8
20260506225623 45 84 4.0 7.0 0.00 0.00 0.00 81 1008.8
20260506225123 45 4 3.0 5.0 0.00 0.00 0.00 81 1008.5
20260506224623 45 217 5.0 8.0 0.00 0.00 0.00 81 1008.8
20260506224123 45 128 4.0 6.0 0.00 0.00 0.00 81 1008.5
20260506223623 44 116 3.0 5.0 0.00 0.00 0.00 81 1008.5
20260506223123 45 206 2.0 2.0 0.00 0.00 0.00 81 1008.5
20260506222623 45 22 4.0 6.0 0.00 0.00 0.00 81 1008.5
20260506222124 45 90 6.0 7.0 0.00 0.00 0.00 81 1008.5
20260506221623 45 71 3.0 3.0 0.00 0.00 0.00 82 1008.5
20260506221123 45 82 3.0 5.0 0.00 0.00 0.00 82 1008.5
20260506220623 45 48 7.0 8.0 0.00 0.00 0.00 82 1008.5
20260506220123 45 297 3.0 6.0 0.00 0.00 0.00 82 1008.5
20260506215623 45 123 4.0 5.0 0.00 0.00 0.74 82 1008.1
20260506215123 45 124 3.0 3.0 0.00 0.00 0.74 82 1008.5
20260506214623 45 168 3.0 6.0 0.00 0.00 0.74 82 1008.5
20260506214130 45 55 4.0 5.0 0.00 0.00 0.74 82 1008.5
20260506213623 44 189 2.0 3.0 0.00 0.00 0.74 82 1008.5
20260506213123 44 64 5.0 7.0 0.00 0.00 0.74 82 1008.1
20260506212623 45 46 4.0 6.0 0.00 0.00 0.74 82 1008.1
20260506212124 44 66 2.0 2.0 0.00 0.00 0.74 82 1008.5
20260506211623 45 347 3.0 5.0 0.00 0.00 0.74 82 1008.5
20260506211123 44 77 5.0 6.0 0.00 0.00 0.74 82 1008.5
20260506210623 45 341 1.0 5.0 0.00 0.00 0.74 81 1008.1
20260506210124 45 229 2.0 2.0 0.00 0.00 0.74 81 1008.1
20260506205623 44 59 2.0 3.0 0.00 0.00 0.74 81 1008.1
20260506205123 44 122 4.0 6.0 0.00 0.00 0.74 81 1008.1
20260506204624 44 218 3.0 3.0 0.00 0.00 0.74 82 1008.1
20260506204123 44 337 2.0 3.0 0.00 0.00 0.74 82 1008.1
20260506203623 44 1 5.0 6.0 0.00 0.00 0.74 82 1008.1
20260506203123 44 19 5.0 7.0 0.00 0.00 0.74 82 1008.1
20260506202623 44 65 3.0 5.0 0.00 0.00 0.74 82 1008.1
20260506202123 44 38 8.0 9.0 0.00 0.00 0.74 82 1008.1
20260506201624 44 44 2.0 2.0 0.00 0.00 0.74 82 1008.1
20260506201124 44 219 3.0 5.0 0.00 0.00 0.74 82 1007.8
20260506200623 44 41 4.0 5.0 0.00 0.00 0.74 82 1008.1
20260506200123 45 325 3.0 5.0 0.00 0.00 0.74 82 1007.8
20260506195623 45 77 3.0 6.0 0.00 0.00 0.74 82 1007.5
20260506195123 45 97 2.0 3.0 0.00 0.00 0.74 82 1007.8
20260506194624 45 253 2.0 3.0 0.00 0.00 0.74 82 1007.8
20260506194123 45 274 1.0 2.0 0.00 0.00 0.74 82 1007.8
20260506193625 45 25 3.0 5.0 0.00 0.00 0.74 82 1008.1
20260506193123 45 308 1.0 2.0 0.00 0.00 0.74 82 1007.8
20260506192624 45 278 1.0 3.0 0.00 0.00 0.74 82 1007.5
20260506192124 45 258 1.0 2.0 0.00 0.00 0.74 82 1007.8
20260506191623 45 292 1.0 1.0 0.00 0.00 0.74 81 1007.8
20260506191124 45 12 2.0 2.0 0.00 0.00 0.74 81 1007.5
20260506190623 45 344 2.0 3.0 0.00 0.00 0.74 81 1007.5
20260506190123 45 61 2.0 3.0 0.00 0.00 0.74 81 1007.5
20260506185625 45 344 6.0 8.0 0.00 0.00 0.74 81 1007.5
20260506185123 45 4 2.0 3.0 0.00 0.00 0.74 81 1007.5
20260506184624 46 352 3.0 3.0 0.00 0.00 0.74 81 1007.5
20260506184123 46 2 9.0 10.0 0.00 0.00 0.74 81 1007.5
20260506183624 46 192 2.0 2.0 0.00 0.00 0.74 81 1007.1
20260506183124 46 228 1.0 2.0 0.00 0.00 0.74 82 1007.5
20260506182623 46 23 6.0 10.0 0.00 0.00 0.74 82 1007.1
20260506182123 46 340 3.0 5.0 0.00 0.00 0.74 82 1007.1
20260506181624 46 76 4.0 5.0 0.00 0.00 0.74 83 1006.8
20260506181123 46 12 3.0 5.0 0.00 0.00 0.74 83 1006.8
20260506180623 46 25 3.0 3.0 0.00 0.00 0.74 83 1006.8
20260506180124 46 7 4.0 6.0 0.00 0.00 0.74 83 1006.8
20260506175624 46 1 5.0 6.0 0.00 0.00 0.74 84 1006.8
20260506175124 47 6 9.0 11.0 0.00 0.00 0.74 83 1006.8
20260506174624 48 60 6.0 9.0 0.00 0.00 0.74 82 1006.8
20260506174123 48 20 5.0 6.0 0.00 0.00 0.74 81 1006.8
20260506173623 48 233 2.0 2.0 0.00 0.00 0.74 80 1006.8
20260506173124 49 5 4.0 6.0 0.00 0.00 0.74 80 1006.8
20260506172623 49 74 3.0 5.0 0.00 0.00 0.74 80 1006.8
20260506172124 49 194 1.0 1.0 0.00 0.00 0.74 81 1006.8
20260506171623 49 162 3.0 3.0 0.00 0.00 0.74 81 1006.8
20260506171127 49 229 2.0 3.0 0.00 0.00 0.74 81 1006.8
20260506170625 49 232 2.0 3.0 0.00 0.00 0.74 81 1006.4
20260506170124 49 39 4.0 5.0 0.00 0.00 0.74 81 1006.4
20260506165623 49 354 7.0 9.0 0.00 0.00 0.74 82 1006.4
20260506165123 49 199 4.0 5.0 0.00 0.00 0.74 82 1006.4
20260506164623 49 1 4.0 6.0 0.00 0.00 0.74 82 1006.4
20260506163651 50 40 4.0 6.0 0.00 0.00 0.74 81 1006.4
20260506163124 50 87 2.0 2.0 0.00 0.00 0.74 81 1006.4
20260506162623 50 244 1.0 2.0 0.00 0.00 0.74 81 1006.4
20260506162123 50 197 1.0 2.0 0.00 0.00 0.74 81 1006.4
20260506161623 50 265 0.0 1.0 0.00 0.00 0.74 81 1006.4
20260506161123 50 247 2.0 2.0 0.00 0.00 0.74 80 1006.4
20260506160624 50 130 1.0 1.0 0.00 0.00 0.74 79 1006.1
20260506160124 51 27 2.0 2.0 0.00 0.00 0.74 80 1006.4
20260506155624 51 157 1.0 1.0 0.00 0.00 0.74 81 1006.1
20260506155123 50 333 3.0 3.0 0.00 0.00 0.74 81 1006.1
20260506154623 50 264 0.0 1.0 0.00 0.00 0.74 81 1006.4
20260506154124 50 244 1.0 1.0 0.00 0.00 0.74 81 1006.1
20260506153624 50 21 5.0 6.0 0.00 0.00 0.74 81 1006.1
20260506153125 50 2 3.0 3.0 0.00 0.00 0.74 81 1006.1
20260506152624 50 234 2.0 3.0 0.00 0.00 0.74 81 1006.1
20260506152123 50 265 1.0 1.0 0.00 0.00 0.74 81 1006.1
20260506151624 50 218 0.0 0.0 0.00 0.00 0.74 81 1006.1
20260506151123 50 189 1.0 1.0 0.00 0.00 0.74 81 1006.1
20260506150625 50 248 0.0 0.0 0.00 0.00 0.74 82 1006.1
20260506150126 50 220 1.0 3.0 0.00 0.00 0.74 82 1006.1
20260506145624 50 233 2.0 3.0 0.00 0.00 0.74 83 1006.1
20260506145123 50 259 2.0 2.0 0.00 0.00 0.74 83 1006.1
20260506144623 49 194 3.0 3.0 0.00 0.00 0.74 83 1005.8
20260506144123 50 4 3.0 3.0 0.00 0.00 0.74 83 1005.8
20260506143624 50 197 0.0 0.0 0.00 0.00 0.74 83 1005.8
20260506143123 49 341 3.0 3.0 0.00 0.00 0.74 84 1006.1
20260506142624 49 222 0.0 1.0 0.00 0.00 0.74 84 1005.8
20260506142124 49 218 2.0 2.0 0.00 0.00 0.74 84 1005.8
20260506141623 50 356 6.0 7.0 0.00 0.00 0.74 85 1005.8
20260506141124 49 130 1.0 3.0 0.00 0.00 0.74 85 1005.8
20260506140624 49 254 1.0 2.0 0.00 0.00 0.74 85 1005.8
20260506140124 49 355 4.0 6.0 0.00 0.00 0.74 86 1005.8
20260506135623 50 98 2.0 2.0 0.00 0.00 0.74 86 1005.8
20260506135126 49 216 0.0 0.0 0.00 0.00 0.74 86 1006.1
20260506134624 49 144 3.0 3.0 0.00 0.00 0.74 86 1005.8
20260506133755 49 122 1.0 1.0 0.07 0.00 0.74 87 1005.8
20260506133124 49 228 2.0 2.0 0.00 0.00 0.73 86 1006.1
20260506132623 48 352 3.0 3.0 0.00 0.00 0.73 86 1005.8
20260506132124 48 256 3.0 5.0 0.00 0.00 0.73 86 1005.8
20260506131623 48 230 0.0 1.0 0.05 0.00 0.73 86 1005.8
20260506131124 48 224 0.0 1.0 0.05 0.00 0.73 86 1005.8
20260506130624 48 217 0.0 0.0 0.00 0.00 0.72 86 1005.8
20260506130125 48 118 3.0 5.0 0.00 0.00 0.72 85 1005.8
20260506125623 48 324 3.0 6.0 0.00 0.00 0.72 85 1005.8
20260506125123 48 182 1.0 1.0 0.00 0.00 0.72 86 1005.8
20260506124623 48 224 1.0 2.0 0.00 0.00 0.72 86 1005.8
20260506124123 48 180 4.0 6.0 0.00 0.00 0.72 86 1005.8
20260506123629 48 345 1.0 2.0 0.00 0.00 0.72 86 1005.8
20260506123124 48 279 1.0 1.0 0.00 0.00 0.72 86 1005.8
20260506122624 48 1 5.0 5.0 0.00 0.00 0.72 86 1005.4
20260506122124 48 128 1.0 2.0 0.00 0.00 0.72 86 1005.4
20260506121624 48 343 3.0 3.0 0.00 0.00 0.72 86 1005.1
20260506121123 48 17 6.0 8.0 0.00 0.00 0.72 85 1005.1
20260506120623 49 250 1.0 1.0 0.00 0.00 0.72 85 1005.1
20260506120123 48 12 2.0 5.0 0.00 0.00 0.72 85 1005.4
20260506115623 49 69 4.0 6.0 0.00 0.00 0.72 85 1005.1
20260506115124 49 77 2.0 3.0 0.00 0.00 0.72 86 1005.1
20260506114624 49 344 3.0 5.0 0.00 0.00 0.72 87 1005.1
20260506114124 49 8 5.0 6.0 0.00 0.00 0.72 87 1005.1
20260506113624 49 64 4.0 5.0 0.00 0.00 0.72 87 1005.1
20260506113124 49 106 1.0 1.0 0.00 0.00 0.72 88 1005.1
20260506112624 49 245 2.0 5.0 0.00 0.00 0.72 88 1005.1
20260506112123 49 341 1.0 2.0 0.00 0.00 0.72 88 1004.4
20260506111625 49 192 2.0 2.0 0.00 0.00 0.72 88 1004.7
20260506111124 49 254 3.0 5.0 0.00 0.00 0.72 88 1005.1
20260506110624 49 358 5.0 6.0 0.00 0.00 0.72 88 1005.1
20260506110124 49 22 3.0 3.0 0.00 0.00 0.72 88 1005.1
20260506105623 49 205 1.0 2.0 0.00 0.00 0.72 88 1005.1
20260506105123 50 215 1.0 2.0 0.00 0.00 0.72 88 1005.1
20260506104623 49 210 2.0 3.0 0.07 0.00 0.72 88 1005.1
20260506104123 50 252 3.0 3.0 0.07 0.00 0.72 88 1005.1
20260506103623 50 325 4.0 6.0 0.07 0.00 0.72 88 1004.7
20260506103125 50 309 4.0 5.0 0.00 0.00 0.71 88 1004.7
20260506102623 49 232 5.0 6.0 0.00 0.00 0.71 88 1004.7
20260506102123 50 321 1.0 2.0 0.00 0.00 0.71 88 1004.7
20260506101623 49 327 1.0 2.0 0.00 0.00 0.71 88 1005.1
20260506101123 49 22 3.0 3.0 0.00 0.00 0.71 88 1005.1
20260506100623 49 8 6.0 7.0 0.05 0.00 0.71 88 1005.1
20260506100123 49 221 1.0 2.0 0.05 0.00 0.71 88 1004.7
20260506095623 49 3 4.0 6.0 0.07 0.00 0.70 88 1004.7
20260506095124 49 45 5.0 7.0 0.07 0.00 0.70 88 1004.7
20260506094623 49 44 4.0 6.0 0.05 0.00 0.69 88 1004.7
20260506094123 49 275 1.0 2.0 0.12 0.00 0.69 88 1005.1
20260506093623 48 354 1.0 1.0 0.12 0.00 0.68 88 1005.1
20260506093124 48 166 0.0 0.0 0.19 0.00 0.68 88 1004.7
20260506092623 48 219 3.0 6.0 0.17 0.00 0.67 88 1004.7
20260506092123 48 11 2.0 3.0 0.12 0.00 0.65 88 1005.1
20260506091623 48 202 3.0 5.0 0.07 0.00 0.64 88 1004.7
20260506091123 48 358 1.0 2.0 0.00 0.00 0.63 88 1004.7
20260506090623 48 156 1.0 2.0 0.00 0.00 0.63 88 1004.7
20260506090123 48 61 3.0 5.0 0.05 0.00 0.63 88 1004.7
20260506085624 48 64 4.0 6.0 0.05 0.00 0.63 88 1004.7
20260506085123 48 0 4.0 6.0 0.00 0.00 0.62 88 1004.7
20260506084623 48 3 3.0 5.0 0.00 0.00 0.62 88 1004.7
20260506084123 48 201 0.0 0.0 0.00 0.00 0.62 88 1004.7
20260506083623 48 15 3.0 5.0 0.00 0.00 0.62 88 1004.7
20260506083123 48 18 3.0 3.0 0.07 0.00 0.62 88 1004.7
20260506082623 48 223 0.0 1.0 0.14 0.00 0.62 88 1004.7
20260506082123 48 324 2.0 3.0 0.12 0.00 0.61 88 1004.7
20260506081623 48 85 4.0 6.0 0.05 0.00 0.60 88 1004.7
20260506081123 48 70 1.0 3.0 0.12 0.00 0.60 88 1004.7
20260506080624 48 56 2.0 2.0 0.19 0.00 0.59 88 1004.7
20260506080124 48 91 2.0 3.0 0.17 0.00 0.58 88 1004.7
20260506073123 48 358 3.0 5.0 0.00 0.00 0.55 88 1004.4
20260506072625 49 51 2.0 3.0 0.00 0.00 0.55 88 1004.4
20260506072123 49 48 3.0 3.0 0.00 0.00 0.55 88 1004.4
20260506071623 48 26 5.0 6.0 0.00 0.00 0.55 88 1004.4
20260506071124 48 138 1.0 2.0 0.07 0.00 0.55 88 1004.4
20260506070624 48 264 3.0 5.0 0.07 0.00 0.55 88 1004.4
20260506070123 48 357 6.0 8.0 0.00 0.00 0.54 89 1004.4
20260506062123 50 5 6.0 8.0 0.07 0.00 0.49 89 1004.4
20260506061624 49 29 8.0 9.0 0.14 0.00 0.49 89 1004.1
20260506061123 50 62 5.0 8.0 0.12 0.00 0.48 89 1004.7
20260506060623 50 57 7.0 9.0 0.05 0.00 0.47 89 1004.4
20260506060123 50 323 4.0 6.0 0.12 0.00 0.46 89 1004.4
20260506051123 50 246 3.0 3.0 0.24 0.00 0.34 89 1005.1
20260506050623 50 42 2.0 3.0 0.35 0.00 0.32 88 1004.7
20260506050124 50 25 4.0 5.0 0.35 0.00 0.30 88 1005.1
20260506045123 50 36 4.0 6.0 0.24 0.00 0.24 88 1005.1
20260506044623 51 2 2.0 3.0 0.24 0.00 0.22 88 1005.1